Location: C.E.K. Mees Observatory
(42.7003°N, 77.4088°W)
Time: 03:56:44
(UTC-04:00)

N. Korean satellite - Pass Details

Date: 15 October 2017
Orbit: 459 x 517 km, 97.2° (Epoch: 22 October)

Event Time Altitude Azimuth Distance (km) Brightness Sun altitude
Rises 18:59:44 0° 161° (SSE) 2,541 10.1 -6.8°
Reaches altitude 10° 19:01:48 10° 158° (SSE) 1,656 9.1 -7.2°
Maximum altitude 19:05:20 66° 76° (ENE) 523 6.5 -7.8°
Drops below altitude 10° 19:08:49 10° 354° (N) 1,640 9.3 -8.5°
Sets 19:10:52 0° 351° (N) 2,514 10.3 -8.9°
